When you browse on this site, cookies collect data to enhance your experience and personalize the content and advertising you see.
Visit our Privacy Policy to learn more. By continuing to use the site, you agree to this use of cookies and data.
  • în România
  • Lista ţărilor
  • Pe 7 zile
  • Temperatura apei
  • Meteo pe hartă
  • Widget-uri
  • user-avatar
    Intrare

    Meteo pe oră la Beverly

    Astăzi, 31 Mai, Duminică

    Timp Temperatura Precipitaţii Vânt Presiune Umiditate
    00:00 +9°C° 0 mm 3 m/s 768 mmHg 93%
    01:00 +9°C° 0 mm 3 m/s 768 mmHg 93%
    02:00 +9°C° 0 mm 2 m/s 768 mmHg 93%
    03:00 +8°C° 0 mm 2 m/s 768 mmHg 92%
    04:00 +10°C° 0 mm 3 m/s 768 mmHg 90%
    05:00 +11°C° 0 mm 3 m/s 768 mmHg 88%
    06:00 +12°C° 0 mm 3 m/s 768 mmHg 87%
    07:00 +14°C° 0 mm 4 m/s 768 mmHg 81%
    08:00 +15°C° 0 mm 4 m/s 768 mmHg 76%
    09:00 +18°C° 0 mm 4 m/s 768 mmHg 71%
    10:00 +18°C° 0 mm 4 m/s 768 mmHg 68%
    11:00 +19°C° 0 mm 5 m/s 768 mmHg 64%
    12:00 +20°C° 0 mm 5 m/s 768 mmHg 61%
    13:00 +20°C° 0 mm 5 m/s 768 mmHg 59%
    14:00 +20°C° 0 mm 5 m/s 768 mmHg 57%
    15:00 +20°C° 0 mm 5 m/s 768 mmHg 55%
    16:00 +19°C° 0 mm 4 m/s 768 mmHg 59%
    17:00 +18°C° 0 mm 4 m/s 768 mmHg 64%
    18:00 +17°C° 0 mm 4 m/s 768 mmHg 68%
    19:00 +16°C° 0 mm 3 m/s 769 mmHg 74%
    20:00 +13°C° 0 mm 3 m/s 769 mmHg 80%
    21:00 +11°C° 0 mm 3 m/s 769 mmHg 86%
    22:00 +10°C° 0 mm 3 m/s 769 mmHg 86%
    23:00 +10°C° 0 mm 3 m/s 769 mmHg 86%

    Mâine, 1 Iunie, Luni

    Timp Temperatura Precipitaţii Vânt Presiune Umiditate
    00:00 +10°C° 0 mm 3 m/s 770 mmHg 86%
    01:00 +9°C° 0 mm 3 m/s 769 mmHg 87%
    02:00 +9°C° 0 mm 3 m/s 769 mmHg 88%
    03:00 +9°C° 0 mm 3 m/s 769 mmHg 89%
    04:00 +10°C° 0 mm 3 m/s 769 mmHg 87%
    05:00 +12°C° 0 mm 4 m/s 769 mmHg 85%
    06:00 +13°C° 0 mm 4 m/s 769 mmHg 83%
    07:00 +14°C° 0 mm 4 m/s 769 mmHg 77%
    08:00 +15°C° 0 mm 4 m/s 769 mmHg 70%
    09:00 +17°C° 0 mm 5 m/s 769 mmHg 64%
    10:00 +17°C° 0 mm 5 m/s 769 mmHg 65%
    11:00 +17°C° 0 mm 5 m/s 769 mmHg 65%
    12:00 +19°C° 0 mm 5 m/s 769 mmHg 66%
    13:00 +19°C° 0 mm 5 m/s 769 mmHg 62%
    14:00 +17°C° 0 mm 5 m/s 769 mmHg 59%
    15:00 +17°C° 0 mm 5 m/s 769 mmHg 55%
    16:00 +17°C° 0 mm 5 m/s 769 mmHg 59%
    17:00 +17°C° 0 mm 4 m/s 768 mmHg 63%
    18:00 +15°C° 0 mm 4 m/s 768 mmHg 67%
    19:00 +14°C° 0 mm 4 m/s 768 mmHg 74%
    20:00 +12°C° 0 mm 3 m/s 769 mmHg 82%
    21:00 +10°C° 0 mm 3 m/s 769 mmHg 89%
    22:00 +10°C° 0 mm 3 m/s 769 mmHg 90%
    23:00 +10°C° 0 mm 2 m/s 768 mmHg 90%

    Poimâine, 2 Iunie, Marţi

    Timp Temperatura Precipitaţii Vânt Presiune Umiditate
    00:00 +10°C° 0 mm 2 m/s 768 mmHg 91%
    01:00 +9°C° 0 mm 2 m/s 768 mmHg 92%
    02:00 +9°C° 0 mm 2 m/s 768 mmHg 92%
    03:00 +9°C° 0 mm 2 m/s 767 mmHg 92%
    04:00 +10°C° 0 mm 2 m/s 767 mmHg 90%
    05:00 +12°C° 0 mm 2 m/s 767 mmHg 88%
    06:00 +13°C° 0 mm 2 m/s 767 mmHg 86%
    07:00 +14°C° 0 mm 2 m/s 766 mmHg 80%
    08:00 +16°C° 0 mm 2 m/s 766 mmHg 73%
    09:00 +17°C° 0 mm 3 m/s 766 mmHg 67%
    10:00 +18°C° 0 mm 2 m/s 765 mmHg 63%
    11:00 +19°C° 0 mm 2 m/s 765 mmHg 59%
    12:00 +20°C° 0 mm 2 m/s 765 mmHg 55%
    13:00 +20°C° 0 mm 2 m/s 764 mmHg 54%
    14:00 +20°C° 0 mm 2 m/s 763 mmHg 54%
    15:00 +20°C° 0 mm 2 m/s 763 mmHg 54%
    16:00 +19°C° 0 mm 2 m/s 762 mmHg 59%
    17:00 +18°C° 0 mm 2 m/s 762 mmHg 63%
    18:00 +18°C° 0 mm 2 m/s 761 mmHg 68%
    19:00 +16°C° 0 mm 2 m/s 761 mmHg 72%
    20:00 +14°C° 0 mm 2 m/s 761 mmHg 76%
    21:00 +12°C° 0 mm 2 m/s 761 mmHg 80%
    22:00 +12°C° 0 mm 2 m/s 760 mmHg 79%
    23:00 +12°C° 0 mm 1 m/s 760 mmHg 78%

    3 Iunie, Miercuri

    Timp Temperatura Precipitaţii Vânt Presiune Umiditate
    00:00 +12°C° 0 mm 1 m/s 760 mmHg 77%
    01:00 +12°C° 0 mm 1 m/s 759 mmHg 78%
    02:00 +12°C° 0 mm 2 m/s 759 mmHg 78%
    03:00 +12°C° 0 mm 2 m/s 758 mmHg 78%
    04:00 +12°C° 0 mm 2 m/s 758 mmHg 80%
    05:00 +12°C° 0 mm 3 m/s 758 mmHg 81%
    06:00 +12°C° 0 mm 4 m/s 758 mmHg 83%
    07:00 +12°C° 0 mm 4 m/s 758 mmHg 81%
    08:00 +13°C° 0 mm 5 m/s 758 mmHg 78%
    09:00 +13°C° 0 mm 5 m/s 758 mmHg 76%
    10:00 +14°C° 0 mm 6 m/s 758 mmHg 72%
    11:00 +15°C° 0 mm 6 m/s 758 mmHg 68%
    12:00 +16°C° 0 mm 7 m/s 758 mmHg 64%
    13:00 +16°C° 0 mm 7 m/s 758 mmHg 65%
    14:00 +16°C° 0 mm 7 m/s 758 mmHg 66%
    15:00 +16°C° 0 mm 7 m/s 757 mmHg 67%
    16:00 +15°C° 0.1 mm 7 m/s 757 mmHg 71%
    17:00 +14°C° 0.1 mm 7 m/s 757 mmHg 76%
    18:00 +12°C° 0.1 mm 7 m/s 757 mmHg 80%
    19:00 +11°C° 0 mm 6 m/s 757 mmHg 81%
    20:00 +10°C° 0 mm 6 m/s 758 mmHg 83%
    21:00 +10°C° 0 mm 6 m/s 758 mmHg 84%
    22:00 +9°C° 0 mm 5 m/s 757 mmHg 86%
    23:00 +8°C° 0 mm 5 m/s 757 mmHg 88%

    4 Iunie, Joi

    Timp Temperatura Precipitaţii Vânt Presiune Umiditate
    00:00 +7°C° 0 mm 5 m/s 757 mmHg 90%
    01:00 +6°C° 0 mm 4 m/s 756 mmHg 91%
    02:00 +6°C° 0 mm 4 m/s 756 mmHg 93%
    03:00 +5°C° 0 mm 4 m/s 756 mmHg 94%
    04:00 +6°C° 0 mm 4 m/s 755 mmHg 91%
    05:00 +7°C° 0 mm 4 m/s 755 mmHg 87%
    06:00 +8°C° 0 mm 4 m/s 755 mmHg 84%
    07:00 +10°C° 0 mm 3 m/s 754 mmHg 78%
    08:00 +11°C° 0 mm 3 m/s 754 mmHg 72%
    09:00 +13°C° 0 mm 2 m/s 754 mmHg 65%
    10:00 +14°C° 0.1 mm 2 m/s 754 mmHg 65%
    11:00 +15°C° 0.1 mm 2 m/s 753 mmHg 64%
    12:00 +16°C° 0.1 mm 3 m/s 753 mmHg 63%
    13:00 +16°C° 0.1 mm 3 m/s 753 mmHg 63%
    14:00 +16°C° 0.1 mm 3 m/s 752 mmHg 63%
    15:00 +16°C° 0.1 mm 3 m/s 752 mmHg 63%
    16:00 +16°C° 0.1 mm 3 m/s 751 mmHg 67%
    17:00 +14°C° 0.1 mm 4 m/s 751 mmHg 71%
    18:00 +14°C° 0.1 mm 4 m/s 751 mmHg 75%
    19:00 +13°C° 0 mm 4 m/s 751 mmHg 77%
    20:00 +12°C° 0 mm 5 m/s 750 mmHg 79%
    21:00 +10°C° 0 mm 5 m/s 750 mmHg 81%
    22:00 +10°C° 0 mm 5 m/s 749 mmHg 81%
    23:00 +10°C° 0 mm 5 m/s 749 mmHg 81%

    5 Iunie, Vineri

    Timp Temperatura Precipitaţii Vânt Presiune Umiditate
    00:00 +10°C° 0 mm 5 m/s 748 mmHg 81%
    01:00 +10°C° 0.3 mm 6 m/s 747 mmHg 83%
    02:00 +10°C° 0.3 mm 7 m/s 746 mmHg 85%
    03:00 +10°C° 0.3 mm 7 m/s 745 mmHg 87%
    04:00 +10°C° 0.1 mm 7 m/s 744 mmHg 88%
    05:00 +10°C° 0.1 mm 7 m/s 744 mmHg 89%
    06:00 +10°C° 0.1 mm 8 m/s 743 mmHg 89%
    07:00 +11°C° 0.2 mm 9 m/s 742 mmHg 82%
    08:00 +12°C° 0.2 mm 10 m/s 742 mmHg 75%
    09:00 +12°C° 0.2 mm 11 m/s 741 mmHg 68%
    10:00 +12°C° 0.2 mm 10 m/s 742 mmHg 68%
    11:00 +12°C° 0.2 mm 10 m/s 742 mmHg 68%
    12:00 +11°C° 0.2 mm 9 m/s 742 mmHg 68%
    13:00 +11°C° 0.1 mm 9 m/s 743 mmHg 69%
    14:00 +11°C° 0.1 mm 8 m/s 744 mmHg 71%
    15:00 +11°C° 0.1 mm 7 m/s 745 mmHg 72%
    16:00 +11°C° 0.1 mm 6 m/s 745 mmHg 73%
    17:00 +12°C° 0.1 mm 5 m/s 746 mmHg 73%
    18:00 +12°C° 0.1 mm 4 m/s 746 mmHg 73%
    19:00 +11°C° 0.3 mm 4 m/s 746 mmHg 77%
    20:00 +8°C° 0.3 mm 4 m/s 747 mmHg 81%
    21:00 +7°C° 0.3 mm 5 m/s 747 mmHg 86%
    22:00 +6°C° 0.1 mm 5 m/s 747 mmHg 86%
    23:00 +4°C° 0.1 mm 6 m/s 747 mmHg 85%
    Arată mai mult